Flughafen Paderborn/Lippstadt

Aus VATSIM Germany
Dies ist die bestätigte Version dieser Seite, allerdings nicht deren neueste Version. Die neueste Version ansehen.
Wechseln zu:Navigation, Suche
UnderCon icon.svg.pngDieser Artikel ist noch im Aufbau. Der Artikel kann daher unvollständig sein oder Fehler enthalten!


Paderborn Lippstadt Airport
ICAO / IATA EDLP / PAD
Koordinaten N51°36′51″  E008°36′59″
Höhe 213 m / 699 ft
Wetter EDLP 200620Z 36003KT 310V070 4500 BR SCT008 BKN014 13/12 Q1022
Pisten
Platzfrequenzen
Nur für Flugsimulationszwecke!



Informationen für Piloten und Lotsen
Pilotenbriefing

Standard Operating Procedures (SOP)

Letters of Agreement (LoAs)

Airport Charts


Vorlage:Navigationsleiste Flughäfen EDLL